Погода в Шемурше

Россия / Чувашская Республика     54°53′12″N   47°31′01″E
темп.,
°C
ветер,
м/с
пор.,
м/с
влажн.,
%
обл.,
%
осадки,
мм/ч
давл.,
гПа
погр.,
м
20 июня, вс
вс2000:00+17з411905 0.0 1022194
03:00+16з48911 0.0 1023129
06:00+19зсз47815 0.0 1023190
09:00+24сз45655 0.0 1022590
12:00+28сз34505 0.0 10221526
15:00+29с34470 0.0 10221913
18:00+27с23670 0.0 1021223
21:00+21з22835 0.0 102222
21 июня, пн
пн2100:00+19з11880 0.0 102311
03:00+18зюз22890 0.0 102311
06:00+21зюз23810 0.0 1023134
09:00+26зюз33635 0.0 1023878
12:00+28зсз23480 0.0 10221783
15:00+29сз22464 0.0 10221995
18:00+27зсз356510 0.0 1021186
21:00+22зсз22775 0.0 102214
22 июня, вт
вт2200:00+20з228214 0.0 102212
03:00+19з22874 0.0 102313
06:00+22з23795 0.0 1023146
09:00+27зсз226360 0.0 1023607
12:00+29сз2253100 0.0 10231604
15:00+30с124632 0.0 10221981
18:00+27зсз3362100 0.0 102154
21:00+23сз22800 0.1 102214
23 июня, ср
ср2300:00+21з22820 0.0 102216
03:00+20зсз22840 0.0 102213
06:00+23зсз23780 0.0 1022134
09:00+27зсз23610 0.0 1021684
12:00+30ссз34460 0.0 10212351
15:00+30с444662 0.0 10201813
18:00+26зсз226629 0.0 102037
21:00+22зсз37761 0.0 1020114
24 июня, чт
чт2400:00+20зсз227924 0.0 102020
03:00+19з368392 0.0 1019103
06:00+21ссз48785 0.1 1020291
09:00+26сз3365100 0.1 1019442
12:00+28с56545 0.0 10191131
15:00+29ссв45544 0.0 10191264
18:00+28с24657 0.1 1018465
21:00+23зюз2274100 0.1 101911